Back to catalog

PSLV DEB

AliveSSO
NORAD 39094·DEBRIS·🇮🇳 India

Launched Feb 25, 2013 from Satish Dhawan Space Centre

Loading…

Next Passes (next 24 hours)

TLE

FreshSource: Space-Track

Epoch: Sep 14, 2026, 06:04 UTC

1 39094U 13009J   26257.25284648  .00000917  00000-0  27699-3 0  9992
2 39094  98.3268  84.6507 0007760 251.6277 108.4071 14.44653513710974

Track PSLV DEB in real time with AllMySat

Download on the App Store